Location: Unspecified
(0.0000°N, 0.0000°E)
Time: 18:59:28
(UTC+00:00)

A-11 Canister half - Pass Details

Date: 20 November 2019
Orbit: 1515 x 1685 km, 47.2° (Epoch: 08 December)

Event Time Altitude Azimuth Distance (km) Brightness Sun altitude
Rises 04:38:36 0° 280° (W) 4,785 - -15.7°
Reaches altitude 10° 04:43:31 10° 260° (W) 3,767 - -14.6°
Exits shadow 04:43:51 11° 258° (WSW) 3,714 10.5 -14.5°
Maximum altitude 04:48:35 15° 226° (SW) 3,313 10.5 -13.4°
Drops below altitude 10° 04:53:38 10° 193° (SSW) 3,708 11.1 -12.2°
Sets 04:58:29 0° 172° (S) 4,671 12.0 -11.1°
